Location: Cruquius
(52.3348°N, 4.6319°E)
Time: 00:40:12
(UTC+00:00)

NOSS 3-3 (C) - Pass Details

Date: 28 September 2021
Orbit: 801 x 1411 km, 63.4° (Epoch: 05 October)

Event Time Altitude Azimuth Distance (km) Brightness Sun altitude
Rises 17:44:31 0° 309° (NW) 3,813 8.0 -3.7°
Reaches altitude 10° 17:47:04 10° 314° (NW) 2,942 7.3 -4.1°
Maximum altitude 17:54:04 58° 33° (NNE) 1,393 4.7 -5.2°
Drops below altitude 10° 18:02:06 10° 112° (ESE) 3,358 6.2 -6.4°
Enters shadow 18:03:30 - 114° (ESE) 3,819 6.5 -6.6°
